OAL287 LGKR-LGSK

Flight info

Callsign OAL287
Flight time N/A
Altitude 15000
Route PARAX G12 YNN V651 AGH W58 SKP
Aircraft YS11/M-SDFHY/C

Departure

Time 2026-05-01 15:04
Airport Corfu Ioannis Kapodistrias International Airport (LGKR)

Arrival

Time N/A
Airport Skiathos Island National Airport (LGSK)
Time Latitude Longitude Altitude Speed Heading
2026-05-01 14:53 39.60592 19.91380 20 ft 0 kts 78°
2026-05-01 14:56 39.60594 19.91385 20 ft 1 kts 32°
2026-05-01 14:56 39.60601 19.91384 20 ft 3 kts 335°
2026-05-01 14:56 39.60604 19.91378 20 ft 0 kts 274°
2026-05-01 14:57 39.60589 19.91363 21 ft 2 kts 215°
2026-05-01 14:57 39.60585 19.91352 20 ft 0 kts 260°
2026-05-01 14:59 39.60583 19.91342 20 ft 5 kts 260°
2026-05-01 14:59 39.60590 19.91290 20 ft 6 kts 313°
2026-05-01 14:59 39.60601 19.91279 21 ft 0 kts 320°
2026-05-01 15:00 39.60624 19.91254 21 ft 7 kts 320°
2026-05-01 15:00 39.60682 19.91222 20 ft 11 kts 350°
2026-05-01 15:00 39.60771 19.91198 20 ft 13 kts 349°
2026-05-01 15:01 39.60848 19.91179 23 ft 10 kts 348°
2026-05-01 15:01 39.60914 19.91160 24 ft 9 kts 347°
2026-05-01 15:01 39.60974 19.91145 21 ft 9 kts 348°
2026-05-01 15:01 39.61037 19.91128 22 ft 9 kts 348°
2026-05-01 15:02 39.61098 19.91111 23 ft 9 kts 349°
2026-05-01 15:02 39.61138 19.91103 24 ft 9 kts 352°
2026-05-01 15:02 39.61183 19.91090 26 ft 6 kts 342°
2026-05-01 15:02 39.61230 19.91000 26 ft 14 kts 274°
2026-05-01 15:03 39.61172 19.90961 24 ft 10 kts 169°
2026-05-01 15:03 39.61159 19.90964 24 ft 0 kts 169°
2026-05-01 15:03 39.60914 19.91026 21 ft 78 kts 169°
2026-05-01 15:04 39.60217 19.91206 27 ft 119 kts 169°
2026-05-01 15:04 39.59343 19.91412 171 ft 131 kts 172°
2026-05-01 15:04 39.58378 19.91652 246 ft 157 kts 164°
2026-05-01 15:04 39.57463 19.92436 656 ft 156 kts 138°
2026-05-01 15:05 39.56771 19.93449 1200 ft 149 kts 126°
2026-05-01 15:05 39.56304 19.94720 1462 ft 164 kts 105°
2026-05-01 15:05 39.56084 19.96191 1868 ft 166 kts 98°
2026-05-01 15:05 39.55886 19.97640 2370 ft 163 kts 100°
2026-05-01 15:06 39.55650 19.99095 2747 ft 168 kts 102°
2026-05-01 15:06 39.55419 20.00580 3229 ft 165 kts 96°
2026-05-01 15:06 39.55289 20.02046 3693 ft 165 kts 95°
2026-05-01 15:06 39.55135 20.03526 4168 ft 164 kts 97°
2026-05-01 15:07 39.54951 20.04968 4690 ft 161 kts 97°
2026-05-01 15:07 39.54762 20.06373 5268 ft 154 kts 98°
2026-05-01 15:07 39.54589 20.07755 5681 ft 160 kts 92°
2026-05-01 15:07 39.54660 20.09211 6083 ft 162 kts 76°
2026-05-01 15:08 39.54906 20.10594 6680 ft 155 kts 77°
2026-05-01 15:08 39.55122 20.11995 7057 ft 163 kts 77°
2026-05-01 15:08 39.55349 20.13423 7555 ft 161 kts 76°
2026-05-01 15:08 39.55647 20.14840 7969 ft 167 kts 69°
2026-05-01 15:09 39.56105 20.16252 8462 ft 169 kts 64°
2026-05-01 15:09 39.56525 20.17643 9173 ft 165 kts 69°
2026-05-01 15:09 39.56903 20.19113 9523 ft 180 kts 70°
2026-05-01 15:09 39.57303 20.20677 10020 ft 181 kts 66°
2026-05-01 15:10 39.57800 20.22155 10561 ft 181 kts 64°
2026-05-01 15:10 39.58820 20.25572 11073 ft 203 kts 77°
2026-05-01 15:10 39.59080 20.27416 11322 ft 217 kts 78°
2026-05-01 15:11 39.59364 20.29428 11294 ft 235 kts 76°
2026-05-01 15:11 39.60134 20.33732 11506 ft 245 kts 75°
2026-05-01 15:11 39.60551 20.35835 11888 ft 241 kts 73°
2026-05-01 15:12 39.60995 20.37972 11982 ft 249 kts 74°
2026-05-01 15:12 39.61886 20.42302 12533 ft 249 kts 73°
2026-05-01 15:12 39.62355 20.44477 12728 ft 255 kts 73°
2026-05-01 15:13 39.63785 20.51532 12437 ft 277 kts 73°
2026-05-01 15:14 39.64771 20.56377 12179 ft 278 kts 75°
2026-05-01 15:14 39.65263 20.58801 12058 ft 278 kts 73°
2026-05-01 15:14 39.66257 20.63638 11866 ft 276 kts 74°
2026-05-01 15:15 39.67232 20.68456 11613 ft 276 kts 73°
2026-05-01 15:15 39.68207 20.73263 11375 ft 275 kts 74°
2026-05-01 15:16 39.69171 20.78007 11406 ft 269 kts 73°
2026-05-01 15:16 39.70133 20.82669 11396 ft 270 kts 73°
2026-05-01 15:17 39.69621 20.87439 11420 ft 270 kts 112°
2026-05-01 15:18 39.67439 20.94189 11420 ft 271 kts 113°
2026-05-01 15:18 39.66718 20.96453 11415 ft 271 kts 112°
2026-05-01 15:19 39.65024 21.03412 11414 ft 271 kts 108°
2026-05-01 15:19 39.63860 21.08042 11432 ft 269 kts 106°
2026-05-01 15:19 39.63325 21.10368 11413 ft 269 kts 108°
2026-05-01 15:20 39.62193 21.14987 11460 ft 269 kts 106°
2026-05-01 15:20 39.61662 21.17310 11450 ft 269 kts 107°
2026-05-01 15:20 39.61108 21.19617 11440 ft 268 kts 108°
2026-05-01 15:21 39.60544 21.21922 11447 ft 268 kts 108°
2026-05-01 15:21 39.59993 21.24247 11450 ft 271 kts 107°
2026-05-01 15:21 39.59444 21.26581 11444 ft 270 kts 107°
2026-05-01 15:21 39.58885 21.28892 11492 ft 269 kts 108°
2026-05-01 15:22 39.57771 21.33562 11505 ft 271 kts 107°
2026-05-01 15:22 39.57216 21.35866 11474 ft 271 kts 107°
2026-05-01 15:22 39.56654 21.38179 11494 ft 270 kts 107°
2026-05-01 15:23 39.56086 21.40547 11486 ft 270 kts 107°
2026-05-01 15:23 39.55721 21.42084 11484 ft 270 kts 107°
2026-05-01 15:23 39.55158 21.44409 11498 ft 271 kts 108°
2026-05-01 15:23 39.54589 21.46740 11458 ft 271 kts 108°
2026-05-01 15:24 39.54029 21.49074 11485 ft 271 kts 107°
2026-05-01 15:24 39.53474 21.51397 11492 ft 271 kts 107°
2026-05-01 15:24 39.52906 21.53727 11509 ft 272 kts 108°
2026-05-01 15:24 39.52335 21.56071 11478 ft 273 kts 108°
2026-05-01 15:25 39.51772 21.58417 11429 ft 273 kts 107°
2026-05-01 15:25 39.51207 21.60746 11469 ft 271 kts 108°
2026-05-01 15:25 39.50633 21.63084 11484 ft 272 kts 108°
2026-05-01 15:25 39.50064 21.65428 11501 ft 274 kts 107°
2026-05-01 15:26 39.49496 21.67783 11523 ft 274 kts 108°
2026-05-01 15:26 39.48920 21.70137 11514 ft 273 kts 108°
2026-05-01 15:26 39.48346 21.72482 11506 ft 274 kts 108°
2026-05-01 15:26 39.47775 21.74830 11498 ft 274 kts 108°
2026-05-01 15:27 39.47199 21.77192 11509 ft 275 kts 108°
2026-05-01 15:27 39.46622 21.79547 11523 ft 275 kts 108°
2026-05-01 15:27 39.46046 21.81895 11506 ft 273 kts 108°
2026-05-01 15:28 39.44901 21.86577 11513 ft 274 kts 108°
2026-05-01 15:28 39.44321 21.88924 11505 ft 274 kts 108°
2026-05-01 15:28 39.43744 21.91273 11499 ft 274 kts 108°
2026-05-01 15:29 39.42590 21.95970 11488 ft 274 kts 108°
2026-05-01 15:29 39.42016 21.98291 11488 ft 275 kts 108°
2026-05-01 15:29 39.40855 22.03000 11490 ft 275 kts 108°
2026-05-01 15:30 39.39878 22.06944 11490 ft 275 kts 108°
2026-05-01 15:31 39.37354 22.17122 11490 ft 275 kts 108°
2026-05-01 15:31 39.36185 22.21823 11509 ft 275 kts 108°
2026-05-01 15:32 39.35012 22.26524 11497 ft 275 kts 108°
2026-05-01 15:32 39.33839 22.31224 11517 ft 276 kts 108°
2026-05-01 15:33 39.32071 22.38283 11495 ft 275 kts 108°
2026-05-01 15:34 39.30300 22.45337 11512 ft 275 kts 108°